Weather in Lopaznoye

Russia / Tyumen Oblast     55°28′44″N   70°25′23″E
temp.,
°C
wind,
m/s
gust,
m/s
humid.,
%
clouds,
%
prec.,
mm/h
press.,
hPa
HPBL,
m
13 april, tue
tue1323:00+3nw37100100 0.0 1035127
02:00+1ne22920 0.0 103712
05:00+1nnw12890 0.0 103910
08:00+4wnw23881 0.0 1040116
11:00+7wnw35730 0.0 1040586
14:00+10wnw46575 0.0 10391179
17:00+9w47665 0.0 1039227
20:00+4w47835 0.0 1039104
14 april, wed
wed1423:00+3wsw48909 0.0 1038126
02:00+2wsw410925 0.0 1037167
05:00+1wsw5128998 0.0 1036226
08:00+4wsw61483100 0.0 1035371
11:00+9w8126750 0.0 1032539
14:00+13w8106428 0.0 1030796
17:00+14w610705 0.0 1029915
20:00+10wsw48875 0.0 1028144
15 april, thu
thu1523:00+8wsw48925 0.0 1028125
02:00+8wsw35935 0.0 102787
05:00+7wsw35945 0.0 102779
08:00+10w48888 0.0 1026241
11:00+15w577315 0.0 1025707
14:00+17w67538 0.0 10231535
17:00+17w57578 0.0 10211400
20:00+13wsw48825 0.0 1020146
16 april, fri
fri1623:00+10wsw4108627 0.0 1019170
02:00+9wsw488619 0.0 1018140
05:00+7wsw478463 0.0 1017108
08:00+10wsw4771100 0.0 1016214
11:00+14wsw4554100 0.0 1014528
14:00+17w4548100 0.0 10131115
17:00+16wnw454938 0.0 10111499
20:00+9ne71187100 0.0 1012351
17 april, sat
sat1723:00+5ne5990100 0.0 1011313
02:00+4ene4791100 0.0 1009336
05:00+4ene4691100 0.0 1007385
08:00+4ne5591100 0.0 1007491
11:000ne8986100 0.2 1007536
14:00−3ne71194100 1.9 1008484
17:00−2ne71194100 4.4 1009690
20:00−4ne81494100 2.1 1010663